FW2600 Weather Reports


time (UTC)temp
C
wind
direction
speed
KPH
gust
KPH
rain 1hr
cm
rain 24hr
cm
rain mn
cm
humidity
%
barometer
mb
20260507021349 14 0.0 0.0 0.00 0.00 0.00 28 1003.7
20260507020439 14 0.0 0.0 0.00 0.00 0.00 28 1003.0
20260507015408 14 0.0 0.0 0.00 0.00 0.00 29 1003.0
20260507014419 14 0.0 0.0 0.00 0.00 0.00 29 1003.0
20260507013408 14 0.0 0.0 0.00 0.00 0.00 29 1002.5
20260507012439 14 0.0 0.0 0.00 0.00 0.00 29 1002.5
20260507010318 14 0.0 0.0 0.00 0.00 0.00 29 1002.2
20260507004157 15 0.0 0.0 0.00 0.00 0.00 31 1002.3
20260507003207 15 0.0 0.0 0.00 0.00 0.00 29 1002.1
20260507002157 15 0.0 0.0 0.00 0.00 0.00 30 1002.1
20260507001127 15 0.0 0.0 0.00 0.00 0.00 28 1002.1
20260507000115 15 0.0 0.0 0.00 0.00 0.00 26 1001.8
20260506235205 15 0.0 0.0 0.00 0.00 0.00 26 1001.8
20260506234315 15 0.0 0.0 0.00 0.00 0.00 22 1001.8
20260506233204 15 0.0 0.0 0.00 0.00 0.00 21 1001.6
20260506232134 15 0.0 0.0 0.00 0.00 0.00 14 1001.5
20260506231124 15 0.0 0.0 0.00 0.00 0.00 14 1001.5
20260506230134 15 0.0 0.0 0.00 0.00 0.00 21 1001.3
20260506225204 16 0.0 0.0 0.00 0.00 0.00 14 1001.3
20260506224154 16 0.0 0.0 0.00 0.00 0.00 14 1001.3
20260506223144 16 0.0 0.0 0.00 0.00 0.00 20 1001.2
20260506222134 16 0.0 0.0 0.00 0.00 0.00 14 1001.2
20260506221144 16 0.0 0.0 0.00 0.00 0.00 14 1001.2
20260506220114 16 0.0 0.0 0.00 0.00 0.00 21 1001.0
20260506215204 16 0.0 0.0 0.00 0.00 0.00 22 1001.0
20260506214154 16 0.0 0.0 0.00 0.00 0.00 14 1001.0
20260506213204 16 0.0 0.0 0.00 0.00 0.00 14 1000.8
20260506212133 17 0.0 0.0 0.00 0.00 0.00 14 1000.8
20260506211123 17 0.0 0.0 0.00 0.00 0.00 14 1000.8
20260506210234 17 0.0 0.0 0.00 0.00 0.00 14 1000.4
20260506205103 17 0.0 0.0 0.00 0.00 0.00 14 1000.4
20260506204113 17 0.0 0.0 0.00 0.00 0.00 14 1000.4
20260506203043 17 0.0 0.0 0.00 0.00 0.00 14 1000.2
20260506202032 17 0.0 0.0 0.00 0.00 0.00 14 1000.2
20260506201021 18 0.0 0.0 0.00 0.00 0.00 14 1000.3
20260506200011 18 0.0 0.0 0.00 0.00 0.00 14 1000.2
20260506195001 18 0.0 0.0 0.00 0.00 0.00 14 1000.2
20260506194031 18 0.0 0.0 0.00 0.00 0.00 14 1000.2
20260506193041 18 0.0 0.0 0.00 0.00 0.00 14 1000.0
20260506192011 18 0.0 0.0 0.00 0.00 0.00 14 1000.0
20260506190941 19 0.0 0.0 0.00 0.00 0.00 14 1000.0
20260506190011 19 0.0 0.0 0.00 0.00 0.00 14 999.7
20260506185041 19 0.0 0.0 0.00 0.00 0.00 14 999.7
20260506183950 20 0.0 0.0 0.00 0.00 0.00 14 999.8
20260506182940 20 0.0 0.0 0.00 0.00 0.00 14 999.3
20260506181930 20 0.0 0.0 0.00 0.00 0.00 14 999.3
20260506180940 20 0.0 0.0 0.00 0.00 0.00 14 999.3
20260506175909 20 0.0 0.0 0.00 0.00 0.00 14 999.3
20260506174859 21 0.0 0.0 0.00 0.00 0.00 14 999.3
20260506173909 21 0.0 0.0 0.00 0.00 0.00 14 999.3
20260506172959 21 0.0 0.0 0.00 0.00 0.00 14 999.4
20260506171828 21 0.0 0.0 0.00 0.00 0.00 14 999.3
20260506170818 22 0.0 0.0 0.00 0.00 0.00 14 999.4
20260506165909 22 0.0 0.0 0.00 0.00 0.00 14 999.5
20260506165019 22 0.0 0.0 0.00 0.00 0.00 14 999.5
20260506163948 23 0.0 0.0 0.00 0.00 0.00 14 999.6
20260506162838 23 0.0 0.0 0.00 0.00 0.00 14 1000.1
20260506161828 23 0.0 0.0 0.00 0.00 0.00 14 1000.1
20260506160838 24 0.0 0.0 0.00 0.00 0.00 14 1000.1
20260506155928 24 0.0 0.0 0.00 0.00 0.00 14 1000.8
20260506154858 24 0.0 0.0 0.00 0.00 0.00 14 1000.8
20260506153848 24 0.0 0.0 0.00 0.00 0.00 14 1000.8
20260506152858 24 0.0 0.0 0.00 0.00 0.00 14 1001.1
20260506151848 24 0.0 0.0 0.00 0.00 0.00 14 1001.2
20260506150817 24 0.0 0.0 0.00 0.00 0.00 14 1001.2
20260506145948 25 0.0 0.0 0.00 0.00 0.00 14 1001.3
20260506144917 25 0.0 0.0 0.00 0.00 0.00 14 1001.4
20260506143827 23 0.0 0.0 0.00 0.00 0.00 14 1001.3
20260506142756 23 0.0 0.0 0.00 0.00 0.00 14 1001.5
20260506141806 23 0.0 0.0 0.00 0.00 0.00 14 1001.5
20260506140736 23 0.0 0.0 0.00 0.00 0.00 14 1001.5
20260506135826 24 0.0 0.0 0.00 0.00 0.00 14 1001.8
20260506134856 23 0.0 0.0 0.00 0.00 0.00 14 1001.8
20260506133746 23 0.0 0.0 0.00 0.00 0.00 14 1001.8
20260506132736 23 0.0 0.0 0.00 0.00 0.00 14 1002.1
20260506131846 23 0.0 0.0 0.00 0.00 0.00 14 1002.2
20260506130736 23 0.0 0.0 0.00 0.00 0.00 14 1002.2
20260506125806 24 0.0 0.0 0.00 0.00 0.00 14 1002.3
20260506124816 25 0.0 0.0 0.00 0.00 0.00 14 1002.4
20260506123746 25 0.0 0.0 0.00 0.00 0.00 14 1002.4
20260506122756 26 0.0 0.0 0.00 0.00 0.00 14 1002.8
20260506121726 25 0.0 0.0 0.00 0.00 0.00 14 1002.8
20260506120736 25 0.0 0.0 0.00 0.00 0.00 14 1002.8
20260506115706 26 0.0 0.0 0.00 0.00 0.00 14 1003.0
20260506114656 25 0.0 0.0 0.00 0.00 0.00 14 1002.9
20260506113726 26 0.0 0.0 0.00 0.00 0.00 14 1003.0
20260506112716 25 0.0 0.0 0.00 0.00 0.00 14 1003.4
20260506111726 25 0.0 0.0 0.00 0.00 0.00 14 1003.4
20260506110616 25 0.0 0.0 0.00 0.00 0.00 14 1003.4
20260506104656 23 0.0 0.0 0.00 0.00 0.00 14 1003.6
20260506103726 23 0.0 0.0 0.00 0.00 0.00 14 1003.5
20260506102636 23 0.0 0.0 0.00 0.00 0.00 14 1003.5
20260506101605 24 0.0 0.0 0.00 0.00 0.00 14 1003.5
20260506100435 24 0.0 0.0 0.00 0.00 0.00 14 1003.9
20260506095625 23 0.0 0.0 0.00 0.00 0.00 14 1003.9
20260506094415 23 0.0 0.0 0.00 0.00 0.00 14 1003.9
20260506093445 22 0.0 0.0 0.00 0.00 0.00 14 1003.8
20260506092234 22 0.0 0.0 0.00 0.00 0.00 14 1003.8
20260506091304 22 0.0 0.0 0.00 0.00 0.00 14 1003.8
20260506090134 21 0.0 0.0 0.00 0.00 0.00 14 1003.9
20260506085224 21 0.0 0.0 0.00 0.00 0.00 14 1003.9
20260506084053 20 0.0 0.0 0.00 0.00 0.00 14 1003.9
20260506083043 19 0.0 0.0 0.00 0.00 0.00 14 1003.8
20260506081953 19 0.0 0.0 0.00 0.00 0.00 14 1003.8
20260506080843 19 0.0 0.0 0.00 0.00 0.00 14 1003.9
20260506072700 17 0.0 0.0 0.00 0.00 0.00 25 1003.8
20260506071631 17 0.0 0.0 0.00 0.00 0.00 26 1003.7
20260506070539 16 0.0 0.0 0.00 0.00 0.00 26 1003.5
20260506062355 15 0.0 0.0 0.00 0.00 0.00 32 1003.8
20260506061403 14 0.0 0.0 0.00 0.00 0.00 31 1003.7
20260506060313 14 0.0 0.0 0.00 0.00 0.00 31 1003.4
20260506050736 12 0.0 0.0 0.00 0.00 0.00 27 1003.1
20260506044654 12 0.0 0.0 0.00 0.00 0.00 14 1003.1
20260506043722 12 0.0 0.0 0.00 0.00 0.00 14 1003.1
20260506042530 12 0.0 0.0 0.00 0.00 0.00 14 1002.8
20260506041419 12 0.0 0.0 0.00 0.00 0.00 14 1002.8
20260506040407 12 0.0 0.0 0.00 0.00 0.00 14 1002.8
20260506035355 12 0.0 0.0 0.00 0.00 0.00 14 1002.8
20260506034244 12 0.0 0.0 0.00 0.00 0.00 14 1002.8
20260506033152 12 0.0 0.0 0.00 0.00 0.00 14 1002.5
20260506032040 12 0.0 0.0 0.00 0.00 0.00 14 1002.5
20260506031009 13 0.0 0.0 0.00 0.00 0.00 14 1002.6
20260506025937 13 0.0 0.0 0.00 0.00 0.00 14 1002.8
20260506024805 13 0.0 0.0 0.00 0.00 0.00 14 1002.8
20260506023733 13 0.0 0.0 0.00 0.00 0.00 14 1002.8
20260506022621 13 0.0 0.0 0.00 0.00 0.00 14 1002.8